EFW8MJ LPMA-EGKK

Flight info

Callsign EFW8MJ
Flight time 3h 8m
Altitude 34000
Route DEGUN DCT RULET DCT GALPA DCT VABEM DCT TUNAV DCT IBIDO DCT DEMOS DCT KORUL DCT FEJAC DCT JSY DCT REVTU UP88 VASUX
Aircraft A321/M-SDE3FGHIRWY/LB1

Departure

Time 2026-05-06 17:58
Airport Cristiano Ronaldo International Airport (LPMA)

Arrival

Time 2026-05-06 21:06
Airport London Gatwick Airport (EGKK)
Time Latitude Longitude Altitude Speed Heading
2026-05-06 17:17 32.69361 -16.77663 170 ft 0 kts 139°
2026-05-06 17:17 32.69359 -16.77662 170 ft 0 kts 139°
2026-05-06 17:44 32.69363 -16.77666 169 ft 4 kts 139°
2026-05-06 17:44 32.69382 -16.77686 169 ft 2 kts 139°
2026-05-06 17:45 32.69400 -16.77700 169 ft 4 kts 174°
2026-05-06 17:45 32.69421 -16.77693 169 ft 3 kts 226°
2026-05-06 17:45 32.69437 -16.77674 169 ft 1 kts 226°
2026-05-06 17:49 32.69431 -16.77681 169 ft 3 kts 226°
2026-05-06 17:49 32.69407 -16.77711 169 ft 7 kts 226°
2026-05-06 17:50 32.69363 -16.77765 169 ft 11 kts 226°
2026-05-06 17:50 32.69315 -16.77828 169 ft 7 kts 232°
2026-05-06 17:50 32.69293 -16.77870 169 ft 0 kts 252°
2026-05-06 17:51 32.69293 -16.77871 169 ft 0 kts 252°
2026-05-06 17:54 32.69292 -16.77874 169 ft 1 kts 252°
2026-05-06 17:55 32.69288 -16.77901 169 ft 6 kts 264°
2026-05-06 17:55 32.69287 -16.77969 169 ft 10 kts 269°
2026-05-06 17:55 32.69256 -16.78067 168 ft 16 kts 227°
2026-05-06 17:55 32.69161 -16.78179 163 ft 23 kts 224°
2026-05-06 17:56 32.69034 -16.78328 155 ft 25 kts 225°
2026-05-06 17:56 32.68920 -16.78408 153 ft 12 kts 198°
2026-05-06 17:56 32.68908 -16.78458 153 ft 6 kts 347°
2026-05-06 17:56 32.68942 -16.78433 153 ft 1 kts 44°
2026-05-06 17:57 32.68961 -16.78412 153 ft 23 kts 44°
2026-05-06 17:57 32.69251 -16.78075 168 ft 91 kts 45°
2026-05-06 17:57 32.69841 -16.77385 194 ft 146 kts 44°
2026-05-06 17:58 32.70616 -16.76469 597 ft 157 kts 42°
2026-05-06 17:58 32.71200 -16.75361 1212 ft 163 kts 72°
2026-05-06 17:58 32.71207 -16.73984 1700 ft 177 kts 103°
2026-05-06 17:58 32.70743 -16.72529 1885 ft 199 kts 110°
2026-05-06 17:59 32.70212 -16.70935 2040 ft 221 kts 109°
2026-05-06 17:59 32.69617 -16.69145 2208 ft 245 kts 108°
2026-05-06 17:59 32.68979 -16.67208 2634 ft 259 kts 108°
2026-05-06 17:59 32.68313 -16.65190 3252 ft 265 kts 108°
2026-05-06 18:00 32.67630 -16.63110 3919 ft 270 kts 107°
2026-05-06 18:00 32.66947 -16.61032 4591 ft 275 kts 108°
2026-05-06 18:00 32.66244 -16.58896 5394 ft 280 kts 108°
2026-05-06 18:00 32.65792 -16.56651 6072 ft 280 kts 88°
2026-05-06 18:01 32.66029 -16.54383 6653 ft 278 kts 68°
2026-05-06 18:01 32.66906 -16.52367 7188 ft 275 kts 47°
2026-05-06 18:01 32.68233 -16.50751 7743 ft 275 kts 39°
2026-05-06 18:01 32.69624 -16.49180 8301 ft 278 kts 39°
2026-05-06 18:02 32.71027 -16.47581 8865 ft 281 kts 40°
2026-05-06 18:02 32.72443 -16.45966 9447 ft 283 kts 40°
2026-05-06 18:02 32.73871 -16.44339 10009 ft 286 kts 40°
2026-05-06 18:02 32.75337 -16.42669 10263 ft 300 kts 40°
2026-05-06 18:03 32.76887 -16.40901 10379 ft 317 kts 40°
2026-05-06 18:03 32.78521 -16.39035 10516 ft 335 kts 40°
2026-05-06 18:03 32.80250 -16.37062 10630 ft 351 kts 41°
2026-05-06 18:03 32.82047 -16.35004 10741 ft 365 kts 41°
2026-05-06 18:04 32.83909 -16.32869 10940 ft 377 kts 41°
2026-05-06 18:04 32.85782 -16.30717 11305 ft 381 kts 41°
2026-05-06 18:04 32.87699 -16.28516 11734 ft 384 kts 41°
2026-05-06 18:04 32.89630 -16.26298 12191 ft 387 kts 41°
2026-05-06 18:05 32.91572 -16.24062 12646 ft 390 kts 41°
2026-05-06 18:05 32.93529 -16.21812 13096 ft 392 kts 41°
2026-05-06 18:05 32.95497 -16.19551 13546 ft 395 kts 41°
2026-05-06 18:05 32.97477 -16.17275 13983 ft 397 kts 41°
2026-05-06 18:06 32.99474 -16.14978 14377 ft 400 kts 40°
2026-05-06 18:06 33.01485 -16.12663 14777 ft 402 kts 40°
2026-05-06 18:06 33.03505 -16.10338 15192 ft 405 kts 40°
2026-05-06 18:06 33.05538 -16.07999 15612 ft 407 kts 40°
2026-05-06 18:07 33.07578 -16.05648 15992 ft 409 kts 40°
2026-05-06 18:07 33.09626 -16.03284 16358 ft 411 kts 40°
2026-05-06 18:07 33.11686 -16.00899 16717 ft 413 kts 40°
2026-05-06 18:07 33.13754 -15.98504 17080 ft 416 kts 40°
2026-05-06 18:08 33.15835 -15.96099 17436 ft 418 kts 40°
2026-05-06 18:08 33.17931 -15.93678 17797 ft 420 kts 40°
2026-05-06 18:08 33.20033 -15.91246 18160 ft 422 kts 40°
2026-05-06 18:08 33.21431 -15.89625 18403 ft 424 kts 40°
2026-05-06 18:09 33.24264 -15.86328 18840 ft 425 kts 40°
2026-05-06 18:09 33.26357 -15.83893 19192 ft 426 kts 40°
2026-05-06 18:09 33.27795 -15.82223 19448 ft 427 kts 40°
2026-05-06 18:09 33.29923 -15.79755 19817 ft 427 kts 40°
2026-05-06 18:10 33.32749 -15.76474 20288 ft 428 kts 40°
2026-05-06 18:10 33.34883 -15.73991 20639 ft 428 kts 40°
2026-05-06 18:10 33.36325 -15.72313 20865 ft 428 kts 40°
2026-05-06 18:10 33.38465 -15.69817 21195 ft 429 kts 40°
2026-05-06 18:11 33.40602 -15.67317 21519 ft 430 kts 40°
2026-05-06 18:11 33.42837 -15.64971 21830 ft 426 kts 33°
2026-05-06 18:11 33.45204 -15.62883 22137 ft 428 kts 32°
2026-05-06 18:11 33.47606 -15.60771 22422 ft 429 kts 32°
2026-05-06 18:12 33.50019 -15.58646 22730 ft 430 kts 32°
2026-05-06 18:12 33.52441 -15.56512 23043 ft 431 kts 32°
2026-05-06 18:12 33.54863 -15.54374 23347 ft 432 kts 32°
2026-05-06 18:12 33.57284 -15.52231 23651 ft 433 kts 32°
2026-05-06 18:13 33.59713 -15.50081 23909 ft 434 kts 32°
2026-05-06 18:13 33.62147 -15.47928 24150 ft 435 kts 32°
2026-05-06 18:13 33.64587 -15.45767 24373 ft 436 kts 32°
2026-05-06 18:13 33.67033 -15.43598 24590 ft 437 kts 32°
2026-05-06 18:14 33.69484 -15.41418 24811 ft 438 kts 32°
2026-05-06 18:14 33.71936 -15.39237 25016 ft 439 kts 32°
2026-05-06 18:14 33.74363 -15.37076 25208 ft 440 kts 32°
2026-05-06 18:14 33.76856 -15.34855 25408 ft 441 kts 32°
2026-05-06 18:15 33.79297 -15.32683 25618 ft 441 kts 32°
2026-05-06 18:15 33.81761 -15.30491 25871 ft 440 kts 32°
2026-05-06 18:15 33.84217 -15.28301 26130 ft 439 kts 32°
2026-05-06 18:15 33.86675 -15.26110 26364 ft 438 kts 31°
2026-05-06 18:16 33.89123 -15.23925 26618 ft 438 kts 31°
2026-05-06 18:16 33.91567 -15.21745 26871 ft 437 kts 31°
2026-05-06 18:16 33.94002 -15.19570 27120 ft 436 kts 31°
2026-05-06 18:16 33.96437 -15.17390 27372 ft 435 kts 31°
2026-05-06 18:17 33.98869 -15.15209 27622 ft 435 kts 31°
2026-05-06 18:17 34.01296 -15.13033 27865 ft 434 kts 31°
2026-05-06 18:17 34.03711 -15.10863 28107 ft 433 kts 31°
2026-05-06 18:17 34.06130 -15.08692 28380 ft 432 kts 31°
2026-05-06 18:18 34.08542 -15.06530 28633 ft 432 kts 31°
2026-05-06 18:18 34.10949 -15.04375 28882 ft 431 kts 31°
2026-05-06 18:18 34.13352 -15.02214 29136 ft 430 kts 31°
2026-05-06 18:18 34.15746 -15.00053 29384 ft 429 kts 31°
2026-05-06 18:19 34.18134 -14.97898 29627 ft 429 kts 31°
2026-05-06 18:19 34.20524 -14.95743 29862 ft 428 kts 30°
2026-05-06 18:19 34.22910 -14.93592 30125 ft 427 kts 30°
2026-05-06 18:19 34.25255 -14.91364 30320 ft 431 kts 36°
2026-05-06 18:20 34.27381 -14.88774 30490 ft 435 kts 39°
2026-05-06 18:20 34.29476 -14.86119 30651 ft 436 kts 39°
2026-05-06 18:20 34.31545 -14.83496 30810 ft 436 kts 39°
2026-05-06 18:20 34.33642 -14.80845 30981 ft 436 kts 39°
2026-05-06 18:21 34.35736 -14.78192 31154 ft 436 kts 39°
2026-05-06 18:21 34.37867 -14.75498 31320 ft 436 kts 38°
2026-05-06 18:21 34.40098 -14.73141 31470 ft 428 kts 29°
2026-05-06 18:21 34.42596 -14.71247 31625 ft 421 kts 21°
2026-05-06 18:22 34.45196 -14.69608 31778 ft 421 kts 21°
2026-05-06 18:22 34.47795 -14.67961 31936 ft 421 kts 21°
2026-05-06 18:22 34.50398 -14.66303 32093 ft 422 kts 21°
2026-05-06 18:22 34.52991 -14.64646 32253 ft 422 kts 21°
2026-05-06 18:23 34.55592 -14.62984 32411 ft 422 kts 21°
2026-05-06 18:23 34.58190 -14.61325 32563 ft 422 kts 21°
2026-05-06 18:23 34.60791 -14.59666 32717 ft 422 kts 21°
2026-05-06 18:23 34.63389 -14.58010 32897 ft 422 kts 21°
2026-05-06 18:24 34.65989 -14.56353 33095 ft 422 kts 21°
2026-05-06 18:24 34.68587 -14.54691 33228 ft 423 kts 21°
2026-05-06 18:24 34.71155 -14.53044 33360 ft 423 kts 21°
2026-05-06 18:24 34.73764 -14.51367 33496 ft 424 kts 21°
2026-05-06 18:25 34.76374 -14.49690 33621 ft 424 kts 21°
2026-05-06 18:25 34.78987 -14.48016 33759 ft 425 kts 21°
2026-05-06 18:25 34.81603 -14.46343 33896 ft 425 kts 21°
2026-05-06 18:25 34.84223 -14.44669 34048 ft 425 kts 21°
2026-05-06 18:26 34.89490 -14.41290 34099 ft 430 kts 21°
2026-05-06 18:26 34.94782 -14.37878 34081 ft 430 kts 21°
2026-05-06 18:27 35.00080 -14.34460 34076 ft 431 kts 21°
2026-05-06 18:27 35.05376 -14.31036 34077 ft 431 kts 21°
2026-05-06 18:28 35.10676 -14.27611 34079 ft 431 kts 21°
2026-05-06 18:28 35.15975 -14.24174 34083 ft 431 kts 21°
2026-05-06 18:29 35.21279 -14.20727 34110 ft 432 kts 21°
2026-05-06 18:29 35.26557 -14.17297 34082 ft 433 kts 21°
2026-05-06 18:30 35.31897 -14.13829 34077 ft 434 kts 21°
2026-05-06 18:30 35.37232 -14.10348 34078 ft 435 kts 21°
2026-05-06 18:31 35.42588 -14.06848 34096 ft 436 kts 21°
2026-05-06 18:31 35.47940 -14.03344 34092 ft 436 kts 21°
2026-05-06 18:32 35.53303 -13.99834 34089 ft 437 kts 21°
2026-05-06 18:32 35.58668 -13.96324 34090 ft 437 kts 21°
2026-05-06 18:33 35.64035 -13.92805 34085 ft 437 kts 21°
2026-05-06 18:33 35.69394 -13.89280 34104 ft 437 kts 21°
2026-05-06 18:34 35.74725 -13.85762 34101 ft 437 kts 21°
2026-05-06 18:34 35.80117 -13.82209 34081 ft 440 kts 22°
2026-05-06 18:35 35.85490 -13.78664 34079 ft 441 kts 22°
2026-05-06 18:35 35.90900 -13.75091 34076 ft 441 kts 22°
2026-05-06 18:36 35.96317 -13.71497 34107 ft 442 kts 22°
2026-05-06 18:36 36.01735 -13.67893 34101 ft 442 kts 22°
2026-05-06 18:37 36.06236 -13.64888 34095 ft 442 kts 22°
2026-05-06 18:37 36.12573 -13.60671 34089 ft 443 kts 22°
2026-05-06 18:38 36.17999 -13.57057 34091 ft 443 kts 22°
2026-05-06 18:38 36.23425 -13.53439 34103 ft 443 kts 22°
2026-05-06 18:39 36.28848 -13.49807 34095 ft 442 kts 22°
2026-05-06 18:40 36.36963 -13.44364 34072 ft 445 kts 22°
2026-05-06 18:40 36.42421 -13.40703 34075 ft 446 kts 22°
2026-05-06 18:41 36.47891 -13.37027 34079 ft 447 kts 22°
2026-05-06 18:41 36.53367 -13.33332 34090 ft 447 kts 22°
2026-05-06 18:42 36.58835 -13.29634 34093 ft 447 kts 22°
2026-05-06 18:42 36.64308 -13.25932 34091 ft 447 kts 22°
2026-05-06 18:43 36.69777 -13.22229 34088 ft 447 kts 22°
2026-05-06 18:43 36.75202 -13.18545 34100 ft 447 kts 22°
2026-05-06 18:44 36.80657 -13.14844 34084 ft 446 kts 22°
2026-05-06 18:44 36.86113 -13.11126 34081 ft 448 kts 23°
2026-05-06 18:45 36.91582 -13.07385 34061 ft 449 kts 23°
2026-05-06 18:45 36.97078 -13.03626 34053 ft 450 kts 23°
2026-05-06 18:46 37.02587 -12.99864 34082 ft 451 kts 23°
2026-05-06 18:46 37.08100 -12.96089 34078 ft 452 kts 23°
2026-05-06 18:47 37.13617 -12.92306 34080 ft 452 kts 23°
2026-05-06 18:47 37.19126 -12.88519 34076 ft 452 kts 23°
2026-05-06 18:48 37.24631 -12.84726 34076 ft 452 kts 23°
2026-05-06 18:48 37.30112 -12.80942 34090 ft 452 kts 23°
2026-05-06 18:49 37.35616 -12.77136 34095 ft 452 kts 23°
2026-05-06 18:49 37.41149 -12.73306 34075 ft 455 kts 24°
2026-05-06 18:50 37.46706 -12.69455 34068 ft 456 kts 24°
2026-05-06 18:50 37.52265 -12.65588 34087 ft 456 kts 23°
2026-05-06 18:51 37.57820 -12.61724 34078 ft 456 kts 24°
2026-05-06 18:51 37.63366 -12.57856 34076 ft 456 kts 24°
2026-05-06 18:52 37.68911 -12.53985 34075 ft 455 kts 24°
2026-05-06 18:52 37.74416 -12.50132 34077 ft 455 kts 24°
2026-05-06 18:53 37.79958 -12.46250 34073 ft 455 kts 24°
2026-05-06 18:53 37.85490 -12.42370 34072 ft 455 kts 24°
2026-05-06 18:54 37.90138 -12.39105 34067 ft 456 kts 24°
2026-05-06 18:54 37.95660 -12.35218 34044 ft 458 kts 24°
2026-05-06 18:55 38.01244 -12.31277 34066 ft 460 kts 24°
2026-05-06 18:55 38.06847 -12.27329 34063 ft 460 kts 24°
2026-05-06 18:56 38.12450 -12.23365 34061 ft 461 kts 24°
2026-05-06 18:56 38.18047 -12.19393 34063 ft 461 kts 24°
2026-05-06 18:57 38.23645 -12.15415 34061 ft 461 kts 24°
2026-05-06 18:57 38.29243 -12.11413 34083 ft 461 kts 24°
2026-05-06 18:58 38.34834 -12.07421 34074 ft 460 kts 24°
2026-05-06 18:58 38.40430 -12.03436 34079 ft 461 kts 24°
2026-05-06 18:59 38.46004 -11.99458 34047 ft 463 kts 24°
2026-05-06 18:59 38.51629 -11.95426 34066 ft 464 kts 24°
2026-05-06 19:00 38.57261 -11.91377 34059 ft 465 kts 24°
2026-05-06 19:00 38.62906 -11.87313 34058 ft 465 kts 24°
2026-05-06 19:01 38.68549 -11.83248 34062 ft 466 kts 24°
2026-05-06 19:01 38.74214 -11.79164 34057 ft 466 kts 24°
2026-05-06 19:02 38.79808 -11.75116 34060 ft 463 kts 24°
2026-05-06 19:02 38.85420 -11.71045 34055 ft 463 kts 24°
2026-05-06 19:03 38.91031 -11.66965 34053 ft 463 kts 24°
2026-05-06 19:03 38.96649 -11.62880 34049 ft 463 kts 24°
2026-05-06 19:04 39.02253 -11.58801 34070 ft 463 kts 25°
2026-05-06 19:04 39.07853 -11.54724 34062 ft 463 kts 25°
2026-05-06 19:05 39.13460 -11.50621 34058 ft 463 kts 25°
2026-05-06 19:05 39.19051 -11.46513 34046 ft 463 kts 25°
2026-05-06 19:06 39.24655 -11.42399 34077 ft 463 kts 25°
2026-05-06 19:06 39.30236 -11.38295 34065 ft 461 kts 25°
2026-05-06 19:07 39.35776 -11.34225 34064 ft 460 kts 25°
2026-05-06 19:07 39.41327 -11.30120 34060 ft 461 kts 26°
2026-05-06 19:08 39.46912 -11.26000 34028 ft 463 kts 26°
2026-05-06 19:08 39.52514 -11.21853 34047 ft 464 kts 26°
2026-05-06 19:09 39.58124 -11.17684 34051 ft 464 kts 26°
2026-05-06 19:09 39.63734 -11.13504 34040 ft 465 kts 26°
2026-05-06 19:10 39.69337 -11.09322 34041 ft 465 kts 26°
2026-05-06 19:10 39.74945 -11.05149 34057 ft 464 kts 26°
2026-05-06 19:11 39.80554 -11.00969 34060 ft 463 kts 26°
2026-05-06 19:11 39.86100 -10.96806 34056 ft 463 kts 26°
2026-05-06 19:12 39.91674 -10.92613 34036 ft 463 kts 27°
2026-05-06 19:12 39.97280 -10.88406 34027 ft 466 kts 27°
2026-05-06 19:13 40.02903 -10.84170 34024 ft 467 kts 27°
2026-05-06 19:13 40.08529 -10.79912 34027 ft 467 kts 27°
2026-05-06 19:14 40.14153 -10.75669 34030 ft 467 kts 27°
2026-05-06 19:14 40.19794 -10.71398 34033 ft 467 kts 27°
2026-05-06 19:15 40.25410 -10.67127 34028 ft 467 kts 27°
2026-05-06 19:15 40.31040 -10.62842 34040 ft 467 kts 27°
2026-05-06 19:16 40.36634 -10.58588 34032 ft 467 kts 27°
2026-05-06 19:16 40.42255 -10.54279 34009 ft 469 kts 28°
2026-05-06 19:17 40.47900 -10.49955 34014 ft 470 kts 28°
2026-05-06 19:17 40.53555 -10.45628 34016 ft 471 kts 28°
2026-05-06 19:18 40.59230 -10.41270 34020 ft 471 kts 28°
2026-05-06 19:18 40.64887 -10.36918 34024 ft 472 kts 28°
2026-05-06 19:19 40.70559 -10.32539 34037 ft 472 kts 28°
2026-05-06 19:19 40.76194 -10.28186 34035 ft 471 kts 28°
2026-05-06 19:20 40.81853 -10.23813 34028 ft 471 kts 28°
2026-05-06 19:20 40.87394 -10.19515 34022 ft 472 kts 28°
2026-05-06 19:21 40.93181 -10.15007 34017 ft 474 kts 29°
2026-05-06 19:21 40.98872 -10.10570 34014 ft 475 kts 29°
2026-05-06 19:22 41.04564 -10.06129 34020 ft 475 kts 29°
2026-05-06 19:22 41.10265 -10.01678 34024 ft 475 kts 28°
2026-05-06 19:23 41.15962 -9.97205 34025 ft 475 kts 29°
2026-05-06 19:23 41.21621 -9.92756 34022 ft 473 kts 29°
2026-05-06 19:24 41.27260 -9.88318 33993 ft 471 kts 29°
2026-05-06 19:24 41.32910 -9.83863 33995 ft 472 kts 29°
2026-05-06 19:25 41.38548 -9.79392 33989 ft 474 kts 29°
2026-05-06 19:25 41.44223 -9.74887 33990 ft 475 kts 30°
2026-05-06 19:26 41.49915 -9.70371 34001 ft 476 kts 30°
2026-05-06 19:26 41.55609 -9.65843 34000 ft 476 kts 30°
2026-05-06 19:27 41.61307 -9.61311 34010 ft 476 kts 30°
2026-05-06 19:27 41.66997 -9.56771 34014 ft 476 kts 30°
2026-05-06 19:28 41.72685 -9.52214 34013 ft 476 kts 30°
2026-05-06 19:28 41.78331 -9.47680 34013 ft 476 kts 30°
2026-05-06 19:29 41.84017 -9.43099 34008 ft 477 kts 30°
2026-05-06 19:29 41.89720 -9.38503 34005 ft 478 kts 30°
2026-05-06 19:30 41.95421 -9.33924 34011 ft 478 kts 30°
2026-05-06 19:30 42.01150 -9.29375 34013 ft 478 kts 30°
2026-05-06 19:31 42.06870 -9.24836 34018 ft 478 kts 30°
2026-05-06 19:31 42.15443 -9.17984 34009 ft 477 kts 30°
2026-05-06 19:32 42.21148 -9.13416 34005 ft 477 kts 30°
2026-05-06 19:32 42.26840 -9.08850 34001 ft 476 kts 31°
2026-05-06 19:33 42.32533 -9.04272 34007 ft 475 kts 31°
2026-05-06 19:33 42.38167 -8.99735 34009 ft 474 kts 31°
2026-05-06 19:34 42.43834 -8.95157 34013 ft 474 kts 31°
2026-05-06 19:34 42.49484 -8.90567 34009 ft 473 kts 31°
2026-05-06 19:35 42.55147 -8.85968 34014 ft 473 kts 31°
2026-05-06 19:35 42.60804 -8.81382 34014 ft 473 kts 31°
2026-05-06 19:36 42.66450 -8.76787 34012 ft 473 kts 31°
2026-05-06 19:36 42.72095 -8.72177 34023 ft 473 kts 31°
2026-05-06 19:37 42.77738 -8.67559 34011 ft 473 kts 31°
2026-05-06 19:37 42.82428 -8.63710 34015 ft 474 kts 31°
2026-05-06 19:38 42.88069 -8.59073 34020 ft 473 kts 31°
2026-05-06 19:38 42.94626 -8.53678 34025 ft 473 kts 31°
2026-05-06 19:39 42.99345 -8.49785 34031 ft 473 kts 31°
2026-05-06 19:39 43.04974 -8.45128 34037 ft 472 kts 31°
2026-05-06 19:40 43.10588 -8.40471 34044 ft 472 kts 31°
2026-05-06 19:40 43.16170 -8.35843 34053 ft 471 kts 31°
2026-05-06 19:41 43.21784 -8.31177 34050 ft 471 kts 31°
2026-05-06 19:41 43.27376 -8.26503 34052 ft 471 kts 31°
2026-05-06 19:42 43.32977 -8.21812 34051 ft 471 kts 31°
2026-05-06 19:42 43.38569 -8.17135 34057 ft 470 kts 31°
2026-05-06 19:43 43.44109 -8.12495 34055 ft 469 kts 31°
2026-05-06 19:43 43.49677 -8.07807 34052 ft 468 kts 31°
2026-05-06 19:44 43.55239 -8.03115 34058 ft 468 kts 31°
2026-05-06 19:44 43.60786 -7.98424 34056 ft 467 kts 31°
2026-05-06 19:45 43.66320 -7.93735 34053 ft 467 kts 31°
2026-05-06 19:45 43.71865 -7.89030 34050 ft 466 kts 31°
2026-05-06 19:46 43.77361 -7.84355 34052 ft 466 kts 31°
2026-05-06 19:46 43.82887 -7.79646 34050 ft 466 kts 31°
2026-05-06 19:47 43.88411 -7.74929 34048 ft 466 kts 31°
2026-05-06 19:47 43.93924 -7.70201 34048 ft 466 kts 31°
2026-05-06 19:48 43.99435 -7.65468 34052 ft 466 kts 32°
2026-05-06 19:48 44.04911 -7.60762 34050 ft 466 kts 32°
2026-05-06 19:49 44.10422 -7.56011 34047 ft 465 kts 32°
2026-05-06 19:49 44.15923 -7.51258 34048 ft 465 kts 32°
2026-05-06 19:50 44.21418 -7.46503 34050 ft 465 kts 32°
2026-05-06 19:50 44.26910 -7.41746 34049 ft 464 kts 32°
2026-05-06 19:51 44.32404 -7.36973 34049 ft 464 kts 32°
2026-05-06 19:51 44.37885 -7.32189 34049 ft 465 kts 32°
2026-05-06 19:52 44.43367 -7.27392 34052 ft 465 kts 32°
2026-05-06 19:52 44.48846 -7.22600 34048 ft 465 kts 32°
2026-05-06 19:53 44.54314 -7.17805 34046 ft 464 kts 31°
2026-05-06 19:53 44.59763 -7.13018 34048 ft 464 kts 31°
2026-05-06 19:54 44.65233 -7.08200 34050 ft 464 kts 32°
2026-05-06 19:54 44.70694 -7.03357 34050 ft 464 kts 32°
2026-05-06 19:55 44.76161 -6.98505 34050 ft 464 kts 32°
2026-05-06 19:55 44.81620 -6.93655 34060 ft 464 kts 32°
2026-05-06 19:56 44.87020 -6.88654 34057 ft 464 kts 34°
2026-05-06 19:56 44.92264 -6.83328 34053 ft 464 kts 36°
2026-05-06 19:57 44.97432 -6.77962 34055 ft 464 kts 36°
2026-05-06 19:57 45.02694 -6.72582 34060 ft 464 kts 35°
2026-05-06 19:58 45.07909 -6.67306 34061 ft 464 kts 35°
2026-05-06 19:58 45.13157 -6.61986 34059 ft 464 kts 35°
2026-05-06 19:59 45.18393 -6.56646 34063 ft 464 kts 35°
2026-05-06 19:59 45.23624 -6.51290 34065 ft 463 kts 35°
2026-05-06 20:00 45.28846 -6.45924 34068 ft 463 kts 35°
2026-05-06 20:00 45.34077 -6.40555 34064 ft 463 kts 35°
2026-05-06 20:01 45.39256 -6.35228 34065 ft 463 kts 35°
2026-05-06 20:01 45.44504 -6.29815 34066 ft 463 kts 35°
2026-05-06 20:02 45.49681 -6.24465 34064 ft 462 kts 35°
2026-05-06 20:02 45.54889 -6.19059 34063 ft 462 kts 35°
2026-05-06 20:03 45.60082 -6.13652 34062 ft 462 kts 35°
2026-05-06 20:03 45.65280 -6.08227 34065 ft 462 kts 35°
2026-05-06 20:04 45.70449 -6.02845 34064 ft 462 kts 35°
2026-05-06 20:04 45.75643 -5.97413 34064 ft 462 kts 35°
2026-05-06 20:05 45.80819 -5.91972 34062 ft 462 kts 36°
2026-05-06 20:05 45.85997 -5.86520 34067 ft 462 kts 35°
2026-05-06 20:06 45.91180 -5.81067 34065 ft 461 kts 35°
2026-05-06 20:06 45.96358 -5.75605 34064 ft 461 kts 36°
2026-05-06 20:07 46.01503 -5.70152 34064 ft 461 kts 36°
2026-05-06 20:07 46.06667 -5.64662 34068 ft 461 kts 36°
2026-05-06 20:08 46.11828 -5.59177 34064 ft 461 kts 36°
2026-05-06 20:08 46.16991 -5.53676 34060 ft 461 kts 36°
2026-05-06 20:09 46.22160 -5.48135 34058 ft 461 kts 36°
2026-05-06 20:09 46.27312 -5.42607 34064 ft 461 kts 36°
2026-05-06 20:10 46.32435 -5.37107 34063 ft 461 kts 36°
2026-05-06 20:10 46.37581 -5.31565 34062 ft 461 kts 36°
2026-05-06 20:11 46.42723 -5.26007 34063 ft 461 kts 36°
2026-05-06 20:11 46.47856 -5.20449 34061 ft 460 kts 35°
2026-05-06 20:12 46.52992 -5.14889 34059 ft 460 kts 36°
2026-05-06 20:12 46.58122 -5.09324 34057 ft 460 kts 36°
2026-05-06 20:13 46.63245 -5.03740 34055 ft 459 kts 36°
2026-05-06 20:13 46.68353 -4.98152 34048 ft 459 kts 36°
2026-05-06 20:14 46.73467 -4.92553 34048 ft 459 kts 36°
2026-05-06 20:14 46.78571 -4.86943 34048 ft 459 kts 36°
2026-05-06 20:15 46.83687 -4.81313 34055 ft 462 kts 36°
2026-05-06 20:15 46.88817 -4.75654 34063 ft 461 kts 36°
2026-05-06 20:16 46.93897 -4.70031 34052 ft 461 kts 36°
2026-05-06 20:16 46.99004 -4.64363 34049 ft 460 kts 36°
2026-05-06 20:17 47.04110 -4.58691 34041 ft 460 kts 36°
2026-05-06 20:17 47.09208 -4.53018 34042 ft 459 kts 36°
2026-05-06 20:18 47.14286 -4.47339 34039 ft 459 kts 36°
2026-05-06 20:18 47.19334 -4.41681 34035 ft 458 kts 36°
2026-05-06 20:19 47.24405 -4.35996 34033 ft 458 kts 36°
2026-05-06 20:19 47.29474 -4.30291 34032 ft 458 kts 36°
2026-05-06 20:20 47.34532 -4.24577 34034 ft 458 kts 36°
2026-05-06 20:20 47.39598 -4.18851 34032 ft 458 kts 36°
2026-05-06 20:21 47.44612 -4.13156 34027 ft 457 kts 36°
2026-05-06 20:21 47.49656 -4.07427 34027 ft 457 kts 36°
2026-05-06 20:22 47.54705 -4.01698 34032 ft 457 kts 36°
2026-05-06 20:22 47.59736 -3.95953 34030 ft 457 kts 36°
2026-05-06 20:23 47.64769 -3.90176 34030 ft 457 kts 36°
2026-05-06 20:23 47.69795 -3.84408 34030 ft 457 kts 36°
2026-05-06 20:24 47.73973 -3.79605 34029 ft 457 kts 36°
2026-05-06 20:24 47.78997 -3.73828 34026 ft 456 kts 36°
2026-05-06 20:25 47.84005 -3.68028 34026 ft 456 kts 37°
2026-05-06 20:25 47.89009 -3.62223 34022 ft 456 kts 37°
2026-05-06 20:26 47.94011 -3.56415 34024 ft 456 kts 37°
2026-05-06 20:26 47.99015 -3.50594 34033 ft 455 kts 37°
2026-05-06 20:27 48.03971 -3.44799 34030 ft 456 kts 37°
2026-05-06 20:27 48.08965 -3.38945 34031 ft 456 kts 37°
2026-05-06 20:28 48.13962 -3.33075 34028 ft 455 kts 37°
2026-05-06 20:28 48.18941 -3.27212 34033 ft 455 kts 37°
2026-05-06 20:29 48.23924 -3.21327 34033 ft 456 kts 37°
2026-05-06 20:29 48.28909 -3.15431 34036 ft 456 kts 37°
2026-05-06 20:30 48.36348 -3.06617 34034 ft 455 kts 37°
2026-05-06 20:31 48.41310 -3.00713 34042 ft 455 kts 37°
2026-05-06 20:31 48.46273 -2.94786 34037 ft 455 kts 37°
2026-05-06 20:32 48.51242 -2.88848 34033 ft 455 kts 37°
2026-05-06 20:32 48.56209 -2.82900 34024 ft 456 kts 37°
2026-05-06 20:33 48.61161 -2.76941 34031 ft 455 kts 37°
2026-05-06 20:33 48.66116 -2.70959 34033 ft 455 kts 37°
2026-05-06 20:34 48.71048 -2.64995 34028 ft 456 kts 37°
2026-05-06 20:34 48.75997 -2.58991 34032 ft 456 kts 37°
2026-05-06 20:35 48.80966 -2.53033 34029 ft 455 kts 36°
2026-05-06 20:35 48.86002 -2.47198 34031 ft 455 kts 36°
2026-05-06 20:36 48.91047 -2.41358 34037 ft 455 kts 36°
2026-05-06 20:36 48.96027 -2.35523 34042 ft 455 kts 36°
2026-05-06 20:37 49.01024 -2.29619 34038 ft 455 kts 36°
2026-05-06 20:37 49.06020 -2.23704 34053 ft 455 kts 36°
2026-05-06 20:38 49.11025 -2.17787 34042 ft 455 kts 36°
2026-05-06 20:38 49.16032 -2.11862 34047 ft 455 kts 36°
2026-05-06 20:39 49.21031 -2.05918 34047 ft 455 kts 35°
2026-05-06 20:39 49.26438 -2.00941 34032 ft 453 kts 27°
2026-05-06 20:40 49.31962 -1.96274 34029 ft 454 kts 27°
2026-05-06 20:40 49.37488 -1.91587 34031 ft 454 kts 27°
2026-05-06 20:41 49.43020 -1.86879 34039 ft 454 kts 27°
2026-05-06 20:41 49.48547 -1.82152 34038 ft 454 kts 27°
2026-05-06 20:42 49.54068 -1.77422 34051 ft 454 kts 27°
2026-05-06 20:42 49.59582 -1.72783 34046 ft 453 kts 23°
2026-05-06 20:43 49.65223 -1.69533 33910 ft 453 kts 18°
2026-05-06 20:43 49.68283 -1.67852 33485 ft 452 kts 18°
2026-05-06 20:43 49.71249 -1.66217 33106 ft 452 kts 18°
2026-05-06 20:43 49.74209 -1.64576 32729 ft 453 kts 18°
2026-05-06 20:44 49.77177 -1.62925 32350 ft 454 kts 18°
2026-05-06 20:44 49.80153 -1.61268 31986 ft 455 kts 18°
2026-05-06 20:44 49.83138 -1.59609 31618 ft 456 kts 18°
2026-05-06 20:44 49.86124 -1.57953 31255 ft 457 kts 18°
2026-05-06 20:45 49.89117 -1.56290 30915 ft 457 kts 18°
2026-05-06 20:45 49.92113 -1.54615 30554 ft 458 kts 18°
2026-05-06 20:45 49.95118 -1.52932 30202 ft 459 kts 18°
2026-05-06 20:45 49.98123 -1.51247 29833 ft 460 kts 18°
2026-05-06 20:46 50.01140 -1.49572 29426 ft 461 kts 17°
2026-05-06 20:46 50.04184 -1.47995 29027 ft 462 kts 16°
2026-05-06 20:46 50.07256 -1.46502 28641 ft 462 kts 15°
2026-05-06 20:46 50.08259 -1.46027 28523 ft 463 kts 15°
2026-05-06 20:47 50.19327 -1.40786 27268 ft 466 kts 15°
2026-05-06 20:47 50.22423 -1.39271 26921 ft 467 kts 16°
2026-05-06 20:48 50.28633 -1.36192 26249 ft 469 kts 16°
2026-05-06 20:48 50.31751 -1.34642 25918 ft 470 kts 16°
2026-05-06 20:48 50.34868 -1.33095 25591 ft 470 kts 16°
2026-05-06 20:49 50.37986 -1.31550 25269 ft 471 kts 16°
2026-05-06 20:49 50.41114 -1.30003 25008 ft 472 kts 16°
2026-05-06 20:49 50.44194 -1.28479 24940 ft 455 kts 16°
2026-05-06 20:49 50.47173 -1.26989 24515 ft 444 kts 18°
2026-05-06 20:50 50.50013 -1.25154 24029 ft 441 kts 26°
2026-05-06 20:50 50.52562 -1.22560 23518 ft 430 kts 38°
2026-05-06 20:50 50.54787 -1.19555 22941 ft 414 kts 40°
2026-05-06 20:50 50.56955 -1.16678 22361 ft 400 kts 35°
2026-05-06 20:51 50.59350 -1.14705 21806 ft 383 kts 15°
2026-05-06 20:51 50.61927 -1.14102 21252 ft 368 kts 359°
2026-05-06 20:51 50.64458 -1.14082 20720 ft 358 kts 358°
2026-05-06 20:51 50.66917 -1.14102 20184 ft 349 kts 358°
2026-05-06 20:52 50.69288 -1.14127 19664 ft 341 kts 358°
2026-05-06 20:52 50.71632 -1.14152 19150 ft 334 kts 358°
2026-05-06 20:52 50.73932 -1.14067 18647 ft 328 kts
2026-05-06 20:52 50.76068 -1.12872 18126 ft 329 kts 31°
2026-05-06 20:53 50.77741 -1.10432 17558 ft 330 kts 54°
2026-05-06 20:53 50.78680 -1.07128 16986 ft 331 kts 78°
2026-05-06 20:53 50.78724 -1.03520 16436 ft 331 kts 102°
2026-05-06 20:53 50.78047 -1.00051 15956 ft 329 kts 110°
2026-05-06 20:54 50.77246 -0.96680 15482 ft 326 kts 111°
2026-05-06 20:54 50.76436 -0.93346 15038 ft 324 kts 111°
2026-05-06 20:54 50.75625 -0.90032 14592 ft 322 kts 109°
2026-05-06 20:54 50.75175 -0.86615 14207 ft 316 kts 90°
2026-05-06 20:55 50.75472 -0.83235 13871 ft 309 kts 72°
2026-05-06 20:55 50.76061 -0.80009 13505 ft 308 kts 72°
2026-05-06 20:55 50.76654 -0.76771 13128 ft 306 kts 72°
2026-05-06 20:55 50.77243 -0.73554 12758 ft 304 kts 72°
2026-05-06 20:56 50.77825 -0.70361 12391 ft 302 kts 72°
2026-05-06 20:56 50.78403 -0.67174 12029 ft 300 kts 72°
2026-05-06 20:56 50.78977 -0.64006 11672 ft 299 kts 72°
2026-05-06 20:56 50.79546 -0.60854 11316 ft 297 kts 73°
2026-05-06 20:57 50.80112 -0.57711 10957 ft 295 kts 73°
2026-05-06 20:57 50.80670 -0.54613 10628 ft 294 kts 72°
2026-05-06 20:57 50.81229 -0.51496 10282 ft 292 kts 73°
2026-05-06 20:57 50.81781 -0.48408 9936 ft 291 kts 73°
2026-05-06 20:58 50.82329 -0.45341 9571 ft 289 kts 72°
2026-05-06 20:58 50.82876 -0.42285 9195 ft 287 kts 73°
2026-05-06 20:58 50.83595 -0.39379 8797 ft 283 kts 54°
2026-05-06 20:58 50.84985 -0.37264 8415 ft 276 kts 27°
2026-05-06 20:59 50.86792 -0.36431 8034 ft 271 kts 359°
2026-05-06 20:59 50.87403 -0.36467 7906 ft 269 kts 352°
2026-05-06 20:59 50.90438 -0.37478 7192 ft 272 kts 345°
2026-05-06 20:59 50.92283 -0.38211 6739 ft 273 kts 345°
2026-05-06 21:00 50.94127 -0.38952 6286 ft 274 kts 345°
2026-05-06 21:00 50.95969 -0.39695 5809 ft 270 kts 345°
2026-05-06 21:00 50.97767 -0.40426 5362 ft 263 kts 345°
2026-05-06 21:00 50.99516 -0.41140 4926 ft 257 kts 345°
2026-05-06 21:01 51.01222 -0.41840 4500 ft 247 kts 345°
2026-05-06 21:01 51.02843 -0.42514 4110 ft 234 kts 345°
2026-05-06 21:01 51.04378 -0.43164 3751 ft 225 kts 345°
2026-05-06 21:01 51.05890 -0.43813 3386 ft 224 kts 345°
2026-05-06 21:02 51.07371 -0.44459 3025 ft 220 kts 345°
2026-05-06 21:02 51.08826 -0.44670 2654 ft 205 kts 12°
2026-05-06 21:02 51.10127 -0.43881 2323 ft 200 kts 31°
2026-05-06 21:02 51.11155 -0.42445 2032 ft 195 kts 50°
2026-05-06 21:03 51.11787 -0.40586 1999 ft 184 kts 69°
2026-05-06 21:03 51.12081 -0.38637 2016 ft 180 kts 75°
2026-05-06 21:03 51.12351 -0.36725 2010 ft 179 kts 75°
2026-05-06 21:03 51.12626 -0.34769 1952 ft 175 kts 75°
2026-05-06 21:04 51.12880 -0.32949 1793 ft 163 kts 74°
2026-05-06 21:04 51.13112 -0.31282 1591 ft 150 kts 74°
2026-05-06 21:04 51.13337 -0.29668 1397 ft 145 kts 75°
2026-05-06 21:04 51.13554 -0.28114 1203 ft 143 kts 75°
2026-05-06 21:05 51.13769 -0.26567 1000 ft 143 kts 76°
2026-05-06 21:05 51.13986 -0.25018 792 ft 144 kts 77°
2026-05-06 21:05 51.14205 -0.23480 571 ft 142 kts 78°
2026-05-06 21:05 51.14412 -0.21945 383 ft 142 kts 78°
2026-05-06 21:06 51.14624 -0.20415 237 ft 149 kts 78°
2026-05-06 21:06 51.14831 -0.18902 210 ft 124 kts 77°
2026-05-06 21:06 51.14979 -0.17831 207 ft 75 kts 77°
2026-05-06 21:06 51.15084 -0.17293 208 ft 29 kts 58°
2026-05-06 21:07 51.15165 -0.17229 210 ft 11 kts 332°
2026-05-06 21:07 51.15181 -0.17245 212 ft 0 kts 327°
2026-05-06 21:07 51.15188 -0.17252 213 ft 4 kts 327°
2026-05-06 21:07 51.15217 -0.17284 211 ft 6 kts 324°
2026-05-06 21:08 51.15256 -0.17327 208 ft 8 kts 330°
2026-05-06 21:08 51.15312 -0.17357 209 ft 9 kts 349°
2026-05-06 21:08 51.15361 -0.17312 206 ft 10 kts 64°
2026-05-06 21:08 51.15384 -0.17205 206 ft 11 kts 73°
2026-05-06 21:09 51.15411 -0.17092 206 ft 11 kts 75°
2026-05-06 21:09 51.15428 -0.16976 204 ft 6 kts 76°
2026-05-06 21:09 51.15460 -0.16955 204 ft 6 kts 357°
2026-05-06 21:09 51.15483 -0.16962 204 ft 1 kts 347°
2026-05-06 21:10 51.15484 -0.16962 204 ft 0 kts 347°